User: anonymous
Location: Oshawa
(43.9000°N, 78.8670°W)
Time: 20:46:23
(UTC-04:00)
Language:

Cosmos 1821 Rocket - Orbit

View from above orbital plane
View from above orbital plane
View from above satellite
View from above satellite

Ground track
Ground track

The orbit data is extracted from the following two-line orbital elements,

1 17526U 87017B   14113.30814925  .00000135  00000-0  12168-3 0   717
2 17526 082.9044 180.1350 0038819 294.7257 108.6715 13.76685665347996
Epoch (UTC): 23 April 2014 07:23:44
Eccentricity: 0.0038819
inclination: 82.9044°
perigee height: 947 km
apogee height: 1004 km
right ascension of ascending node: 180.1350°
argument of perigee: 294.7257°
revolutions per day: 13.76685665
mean anomaly at epoch: 108.6715°
orbit number at epoch: 34799

The dashed part of the orbit path shows where the satellite is in the earth's shadow,  

DLR